McGregor, MN

3:38 AM CDT on May 24, 2017 (GMT -0500)
McGregor

Weather History for KHZX - October, 2012

Change the Weather History Date:

Saturday, October 27, 2012

  Actual Average (KAIT) Record (KAIT)
Temperature  
Mean Temperature 32 °F -  
Max Temperature 37 °F 53 °F 72 °F (1964)
Min Temperature 28 °F 34 °F 9 °F (1976)
Degree Days  
Heating Degree Days 32    
Moisture  
Dew Point 22 °F    
Average Humidity 66    
Maximum Humidity 80    
Minimum Humidity 48    
Precipitation  
Precipitation 0.00 in - - ()
Sea Level Pressure  
Sea Level Pressure 30.28 in    
Wind  
Wind Speed 2 mph (WSW)    
Max Wind Speed 10 mph    
Max Gust Speed 16 mph    
Visibility 10 miles    
Events      
Averages and records for this station are not official NWS values.
T = Trace of Precipitation, MM = Missing Value Source: NWS Daily Summary

Daily Weather History Graph

Daily Weather History Graph

Search for Another Location

Airport or City:

Trip Planner

Search our weather history database for the weather conditions in past years. The results will help you decide how hot, cold, wet, or windy it might be!

Date:

Astronomy

Oct. 27, 2012 Rise Set
Actual Time 7:48 AM CDT 6:04 PM CDT
Civil Twilight 7:17 AM CDT 6:36 PM CDT
Nautical Twilight 6:41 AM CDT 7:11 PM CDT
Astronomical Twilight 6:06 AM CDT 7:46 PM CDT
Moon 4:54 PM CDT (10/27) 5:39 AM CDT (10/27)
Length of Visible Light 11h 18m
Length of Day
10h 16m
Waxing Gibbous, 96% of the Moon is Illuminated
Oct 27
Waxing Gibbous
Oct 29
Full
Nov 6
Last Quarter
Nov 13
New
Nov 20
First Quarter

Hourly Weather History & Observations

Time (CDT) Temp. Windchill Dew Point Humidity Pressure Visibility Wind Dir Wind Speed Gust Speed Precip Events Conditions
12:10 AM 30.2 °F 26.7 °F 21.2 °F 69% 30.27 in 10.0 mi WSW 3.5 mph - N/A   Scattered Clouds
12:32 AM 30.2 °F - 21.2 °F 69% 30.27 in 10.0 mi Calm Calm - N/A   Mostly Cloudy
12:51 AM 30.2 °F - 21.2 °F 69% 30.27 in 10.0 mi Calm Calm - N/A   Overcast
1:09 AM 30.2 °F - 21.2 °F 69% 30.27 in 10.0 mi Calm Calm - N/A   Overcast
1:32 AM 30.2 °F - 21.2 °F 69% 30.27 in 10.0 mi Calm Calm - N/A   Overcast
1:51 AM 28.4 °F - 21.2 °F 74% 30.27 in 10.0 mi Calm Calm - N/A   Overcast
2:07 AM 30.2 °F - 23.0 °F 75% 30.26 in 10.0 mi Calm Calm - N/A   Overcast
2:29 AM 30.2 °F - 23.0 °F 75% 30.27 in 10.0 mi Calm Calm - N/A   Overcast
2:51 AM 30.2 °F 26.7 °F 23.0 °F 75% 30.27 in 10.0 mi SW 3.5 mph - N/A   Overcast
3:31 AM 32.0 °F 28.7 °F 23.0 °F 69% 30.26 in 10.0 mi SW 3.5 mph - N/A   Overcast
3:51 AM 32.0 °F - 23.0 °F 69% 30.26 in 10.0 mi Calm Calm - N/A   Overcast
4:11 AM 32.0 °F - 23.0 °F 69% 30.25 in 10.0 mi Calm Calm - N/A   Overcast
4:31 AM 32.0 °F - 23.0 °F 69% 30.25 in 10.0 mi Calm Calm - N/A   Overcast
4:51 AM 32.0 °F 28.7 °F 23.0 °F 69% 30.26 in 10.0 mi WSW 3.5 mph - N/A   Overcast
5:11 AM 32.0 °F - 23.0 °F 69% 30.26 in 10.0 mi Calm Calm - N/A   Overcast
5:31 AM 32.0 °F - 23.0 °F 69% 30.27 in 10.0 mi Calm Calm - N/A   Overcast
5:51 AM 32.0 °F - 23.0 °F 69% 30.27 in 10.0 mi Calm Calm - N/A   Overcast
6:11 AM 30.2 °F - 23.0 °F 75% 30.28 in 10.0 mi Calm Calm - N/A   Mostly Cloudy
6:51 AM 30.2 °F - 23.0 °F 75% 30.29 in 10.0 mi Calm Calm - N/A   Clear
7:11 AM 30.2 °F 26.7 °F 23.0 °F 75% 30.29 in 10.0 mi SW 3.5 mph - N/A   Clear
7:30 AM 28.4 °F - 23.0 °F 80% 30.29 in 10.0 mi Calm Calm - N/A   Clear
7:51 AM 28.4 °F - 23.0 °F 80% 30.30 in 10.0 mi Calm Calm - N/A   Clear
8:11 AM 28.4 °F - 23.0 °F 80% 30.30 in 10.0 mi Calm Calm - N/A   Clear
8:30 AM 28.4 °F - 23.0 °F 80% 30.30 in 10.0 mi Calm Calm - N/A   Clear
8:49 AM 30.2 °F 26.7 °F 23.0 °F 75% 30.30 in 10.0 mi SW 3.5 mph - N/A   Clear
9:10 AM 30.2 °F 26.7 °F 24.8 °F 80% 30.31 in 10.0 mi SW 3.5 mph - N/A   Clear
9:31 AM 32.0 °F 28.7 °F 26.6 °F 80% 30.31 in 10.0 mi SW 3.5 mph - N/A   Clear
9:49 AM 32.0 °F 26.4 °F 26.6 °F 80% 30.31 in 10.0 mi West 5.8 mph - N/A   Clear
10:31 AM 33.8 °F 27.7 °F 26.6 °F 75% 30.31 in 10.0 mi West 6.9 mph - N/A   Clear
10:49 AM 33.8 °F 28.6 °F 24.8 °F 70% 30.31 in 10.0 mi WSW 5.8 mph - N/A   Clear
11:11 AM 33.8 °F 30.8 °F 23.0 °F 65% 30.31 in 10.0 mi WSW 3.5 mph - N/A   Clear
11:31 AM 35.6 °F 29.9 °F 21.2 °F 56% 30.31 in 10.0 mi WSW 6.9 mph - N/A   Clear
11:50 AM 35.6 °F 29.2 °F 21.2 °F 56% 30.31 in 10.0 mi West 8.1 mph - N/A   Clear
12:11 PM 35.6 °F 28.6 °F 21.2 °F 56% 30.31 in 10.0 mi West 9.2 mph - N/A   Scattered Clouds
12:31 PM 37.4 °F 30.3 °F 21.2 °F 52% 30.31 in 10.0 mi West 10.4 mph - N/A   Scattered Clouds
12:51 PM 35.6 °F 29.9 °F 21.2 °F 56% 30.30 in 10.0 mi West 6.9 mph - N/A   Scattered Clouds
1:11 PM 37.4 °F 30.8 °F 21.2 °F 52% 30.30 in 10.0 mi WSW 9.2 mph - N/A   Mostly Cloudy
1:31 PM 37.4 °F 32.1 °F 21.2 °F 52% 30.29 in 10.0 mi West 6.9 mph 16.1 mph N/A   Overcast
1:50 PM 37.4 °F 30.8 °F 21.2 °F 52% 30.29 in 10.0 mi SW 9.2 mph - N/A   Overcast
2:12 PM 37.4 °F 32.8 °F 19.4 °F 48% 30.29 in 10.0 mi West 5.8 mph - N/A   Overcast
2:31 PM 37.4 °F 32.1 °F 19.4 °F 48% 30.29 in 10.0 mi West 6.9 mph - N/A   Overcast
2:51 PM 37.4 °F 34.9 °F 19.4 °F 48% 30.28 in 10.0 mi West 3.5 mph - N/A   Overcast
3:11 PM 37.4 °F 34.9 °F 19.4 °F 48% 30.28 in 10.0 mi West 3.5 mph - N/A   Overcast
3:31 PM 37.4 °F 34.9 °F 21.2 °F 52% 30.27 in 10.0 mi SSW 3.5 mph - N/A   Mostly Cloudy
3:51 PM 37.4 °F 33.8 °F 19.4 °F 48% 30.27 in 10.0 mi WNW 4.6 mph - N/A   Mostly Cloudy
4:11 PM 37.4 °F 33.8 °F 19.4 °F 48% 30.27 in 10.0 mi West 4.6 mph - N/A   Scattered Clouds
4:31 PM 37.4 °F - 19.4 °F 48% 30.27 in 10.0 mi Calm Calm - N/A   Scattered Clouds
4:51 PM 37.4 °F 33.8 °F 19.4 °F 48% 30.27 in 10.0 mi SW 4.6 mph - N/A   Mostly Cloudy
5:11 PM 37.4 °F - 19.4 °F 48% 30.27 in 10.0 mi Calm Calm - N/A   Scattered Clouds
5:31 PM 35.6 °F - 19.4 °F 52% 30.26 in 10.0 mi Calm Calm - N/A   Scattered Clouds
5:50 PM 35.6 °F - 21.2 °F 56% 30.27 in 10.0 mi Calm Calm - N/A   Clear
6:11 PM 33.8 °F 30.8 °F 21.2 °F 60% 30.27 in 10.0 mi NNE 3.5 mph - N/A   Scattered Clouds
6:32 PM 32.0 °F - 23.0 °F 69% 30.28 in 10.0 mi Calm Calm - N/A   Clear
6:52 PM 32.0 °F 28.7 °F 21.2 °F 64% 30.28 in 10.0 mi ENE 3.5 mph - N/A   Clear
7:12 PM 30.2 °F - 23.0 °F 75% 30.28 in 10.0 mi Calm Calm - N/A   Clear
7:31 PM 30.2 °F - 23.0 °F 75% 30.29 in 10.0 mi Calm Calm - N/A   Clear
7:51 PM 32.0 °F - 21.2 °F 64% 30.29 in 10.0 mi Calm Calm - N/A   Clear
8:11 PM 30.2 °F - 23.0 °F 75% 30.29 in 10.0 mi Calm Calm - N/A   Scattered Clouds
8:48 PM 30.2 °F - 23.0 °F 75% 30.29 in 10.0 mi Calm Calm - N/A   Overcast
9:10 PM 32.0 °F - 23.0 °F 69% 30.29 in 10.0 mi Calm Calm - N/A   Overcast
9:31 PM 32.0 °F - 23.0 °F 69% 30.30 in 10.0 mi Calm Calm - N/A   Overcast
9:51 PM 30.2 °F - 23.0 °F 75% 30.30 in 10.0 mi Calm Calm - N/A   Overcast
10:12 PM 32.0 °F 28.7 °F 23.0 °F 69% 30.30 in 10.0 mi ESE 3.5 mph - N/A   Overcast
10:30 PM 32.0 °F - 24.8 °F 75% 30.30 in 10.0 mi Calm Calm - N/A   Overcast
11:11 PM 32.0 °F - 24.8 °F 75% 30.31 in 10.0 mi Calm Calm - N/A   Overcast
11:52 PM 32.0 °F 27.5 °F 23.0 °F 69% 30.30 in 10.0 mi East 4.6 mph - N/A   Overcast